PIMOHWEATHER Station Historical Data
Daily Summary for February 17, 2020 Units:  Metric    English   Both
Daily Weekly Monthly Yearly
  High: Low: Average:
Temperature: 32.0 °C 25.0 °C 27.5 °C
Dew Point: 25.0 °C 21.0 °C 22.7 °C
Humidity: 84% 61% 76%
Wind Speed: 26km/h 0km/h 9.7km/h
Wind Gust: 32km/h - -
Wind- - SE
Pressure: 1016.6 hPa 1012.5 hPa -
Precipitation: 0.00 mm    
 
 
Tabular Data for February 17, 2020
Time Temperature Dew Point Pressure Wind Wind Speed Wind Gust Humidity Rainfall Rate (Hourly) solar
00:04 26.0 °C 22.0 °C 1014.2 hPa NNE 6 km/h 8 km/h 75% 0.00 mm 0.00 W/m2
00:09 26.0 °C 22.0 °C 1014.2 hPa NNE 8 km/h 8 km/h 76% 0.00 mm 0.00 W/m2
00:14 26.0 °C 22.0 °C 1014.2 hPa NE 8 km/h 8 km/h 76% 0.00 mm 0.00 W/m2
00:19 26.0 °C 22.0 °C 1014.2 hPa NNE 5 km/h 8 km/h 76% 0.00 mm 0.00 W/m2
00:24 26.0 °C 22.0 °C 1014.2 hPa NNE 7 km/h 8 km/h 76% 0.00 mm 0.00 W/m2
00:29 26.0 °C 22.0 °C 1014.2 hPa North 10 km/h 12 km/h 76% 0.00 mm 0.00 W/m2
00:34 26.0 °C 22.0 °C 1014.2 hPa NNE 9 km/h 12 km/h 76% 0.00 mm 0.00 W/m2
00:39 26.0 °C 22.0 °C 1014.2 hPa NNE 10 km/h 12 km/h 77% 0.00 mm 0.00 W/m2
00:44 26.0 °C 22.0 °C 1014.2 hPa NNE 8 km/h 12 km/h 77% 0.00 mm 0.00 W/m2
00:49 26.0 °C 22.0 °C 1014.2 hPa NNE 4 km/h 4 km/h 77% 0.00 mm 0.00 W/m2
00:54 26.0 °C 22.0 °C 1014.2 hPa NNW 5 km/h 8 km/h 77% 0.00 mm 0.00 W/m2
00:59 26.0 °C 22.0 °C 1014.2 hPa North 4 km/h 4 km/h 77% 0.00 mm 0.00 W/m2
01:04 26.0 °C 22.0 °C 1014.2 hPa NNE 5 km/h 8 km/h 77% 0.00 mm 0.00 W/m2
01:09 26.0 °C 22.0 °C 1014.2 hPa North 4 km/h 4 km/h 77% 0.00 mm 0.00 W/m2
01:14 26.0 °C 21.0 °C 1013.9 hPa North 5 km/h 12 km/h 77% 0.00 mm 0.00 W/m2
01:19 26.0 °C 22.0 °C 1013.9 hPa NE 3 km/h 4 km/h 78% 0.00 mm 0.00 W/m2
01:24 26.0 °C 22.0 °C 1013.9 hPa NNE 4 km/h 4 km/h 78% 0.00 mm 0.00 W/m2
01:29 26.0 °C 22.0 °C 1013.9 hPa North 5 km/h 8 km/h 78% 0.00 mm 0.00 W/m2
01:34 26.0 °C 22.0 °C 1013.9 hPa North 4 km/h 8 km/h 79% 0.00 mm 0.00 W/m2
01:39 26.0 °C 22.0 °C 1013.9 hPa Calm     79% 0.00 mm 0.00 W/m2
01:44 26.0 °C 22.0 °C 1013.9 hPa Calm     79% 0.00 mm 0.00 W/m2
01:49 26.0 °C 22.0 °C 1013.9 hPa North 3 km/h 4 km/h 79% 0.00 mm 0.00 W/m2
01:54 26.0 °C 22.0 °C 1013.9 hPa NNW 4 km/h 4 km/h 79% 0.00 mm 0.00 W/m2
01:59 26.0 °C 22.0 °C 1013.9 hPa North 4 km/h 4 km/h 79% 0.00 mm 0.00 W/m2
02:04 26.0 °C 22.0 °C 1013.9 hPa North 4 km/h 4 km/h 79% 0.00 mm 0.00 W/m2
02:09 25.0 °C 21.0 °C 1013.9 hPa North 4 km/h 4 km/h 79% 0.00 mm 0.00 W/m2
02:14 25.0 °C 21.0 °C 1013.9 hPa North 4 km/h 4 km/h 79% 0.00 mm 0.00 W/m2
02:19 25.0 °C 21.0 °C 1013.9 hPa North 3 km/h 4 km/h 79% 0.00 mm 0.00 W/m2
02:24 25.0 °C 21.0 °C 1013.6 hPa North 4 km/h 4 km/h 79% 0.00 mm 0.00 W/m2
02:29 25.0 °C 22.0 °C 1013.6 hPa North 2 km/h 4 km/h 80% 0.00 mm 0.00 W/m2
02:34 25.0 °C 22.0 °C 1013.9 hPa NNW 2 km/h 4 km/h 80% 0.00 mm 0.00 W/m2
02:39 25.0 °C 22.0 °C 1013.9 hPa NW 3 km/h 4 km/h 80% 0.00 mm 0.00 W/m2
02:44 25.0 °C 22.0 °C 1013.9 hPa NNE 4 km/h 4 km/h 80% 0.00 mm 0.00 W/m2
02:49 25.0 °C 22.0 °C 1013.6 hPa North 4 km/h 4 km/h 80% 0.00 mm 0.00 W/m2
02:54 25.0 °C 22.0 °C 1013.6 hPa North 6 km/h 8 km/h 81% 0.00 mm 0.00 W/m2
02:59 25.0 °C 22.0 °C 1013.9 hPa North 7 km/h 8 km/h 81% 0.00 mm 0.00 W/m2
03:04 25.0 °C 22.0 °C 1013.9 hPa North 9 km/h 16 km/h 81% 0.00 mm 0.00 W/m2
03:09 25.0 °C 22.0 °C 1013.9 hPa NNE 9 km/h 12 km/h 81% 0.00 mm 0.00 W/m2
03:14 25.0 °C 22.0 °C 1013.9 hPa North 7 km/h 12 km/h 81% 0.00 mm 0.00 W/m2
03:19 25.0 °C 21.0 °C 1013.6 hPa North 7 km/h 8 km/h 81% 0.00 mm 0.00 W/m2
03:24 25.0 °C 21.0 °C 1013.6 hPa NNE 3 km/h 4 km/h 81% 0.00 mm 0.00 W/m2
03:29 25.0 °C 21.0 °C 1013.6 hPa NNE 2 km/h 4 km/h 81% 0.00 mm 0.00 W/m2
03:34 25.0 °C 21.0 °C 1013.6 hPa North 3 km/h 4 km/h 81% 0.00 mm 0.00 W/m2
03:39 25.0 °C 21.0 °C 1013.6 hPa NNE 5 km/h 8 km/h 81% 0.00 mm 0.00 W/m2
03:44 25.0 °C 21.0 °C 1013.6 hPa NNE 5 km/h 8 km/h 81% 0.00 mm 0.00 W/m2
03:49 25.0 °C 21.0 °C 1013.6 hPa North 5 km/h 8 km/h 81% 0.00 mm 0.00 W/m2
03:54 25.0 °C 22.0 °C 1013.6 hPa North 5 km/h 8 km/h 82% 0.00 mm 0.00 W/m2
03:59 25.0 °C 21.0 °C 1013.6 hPa NNE 6 km/h 8 km/h 82% 0.00 mm 0.00 W/m2
04:04 25.0 °C 21.0 °C 1013.6 hPa NNE 5 km/h 8 km/h 82% 0.00 mm 0.00 W/m2
04:09 25.0 °C 21.0 °C 1013.9 hPa NNE 5 km/h 8 km/h 81% 0.00 mm 0.00 W/m2
04:14 25.0 °C 22.0 °C 1013.9 hPa NNE 6 km/h 8 km/h 82% 0.00 mm 0.00 W/m2
04:19 25.0 °C 21.0 °C 1013.9 hPa North 5 km/h 8 km/h 82% 0.00 mm 0.00 W/m2
04:24 25.0 °C 21.0 °C 1013.9 hPa North 5 km/h 8 km/h 82% 0.00 mm 0.00 W/m2
04:29 25.0 °C 21.0 °C 1013.9 hPa North 4 km/h 4 km/h 82% 0.00 mm 0.00 W/m2
04:34 25.0 °C 21.0 °C 1013.9 hPa North 1 km/h 4 km/h 82% 0.00 mm 0.00 W/m2
04:39 25.0 °C 22.0 °C 1013.9 hPa Calm     82% 0.00 mm 0.00 W/m2
04:44 25.0 °C 22.0 °C 1013.9 hPa Calm     82% 0.00 mm 0.00 W/m2
04:49 25.0 °C 22.0 °C 1013.9 hPa SE 2 km/h 4 km/h 82% 0.00 mm 0.00 W/m2
04:54 25.0 °C 22.0 °C 1013.9 hPa Calm   4 km/h 82% 0.00 mm 0.00 W/m2
04:59 25.0 °C 22.0 °C 1013.9 hPa Calm     82% 0.00 mm 0.00 W/m2
05:04 25.0 °C 22.0 °C 1013.9 hPa Calm     82% 0.00 mm 0.00 W/m2
05:09 25.0 °C 22.0 °C 1013.9 hPa Calm     82% 0.00 mm 0.00 W/m2
05:14 25.0 °C 22.0 °C 1014.2 hPa Calm     82% 0.00 mm 0.00 W/m2
05:19 25.0 °C 22.0 °C 1014.2 hPa Calm     82% 0.00 mm 0.00 W/m2
05:24 25.0 °C 22.0 °C 1014.2 hPa Calm     82% 0.00 mm 0.00 W/m2
05:29 25.0 °C 22.0 °C 1014.2 hPa NW 1 km/h 4 km/h 82% 0.00 mm 0.00 W/m2
05:34 25.0 °C 22.0 °C 1014.2 hPa Calm     82% 0.00 mm 0.00 W/m2
05:39 25.0 °C 22.0 °C 1014.2 hPa Calm     82% 0.00 mm 0.00 W/m2
05:44 25.0 °C 22.0 °C 1014.2 hPa North 1 km/h 4 km/h 82% 0.00 mm 0.00 W/m2
05:49 25.0 °C 22.0 °C 1014.6 hPa WNW 1 km/h 4 km/h 82% 0.00 mm 0.00 W/m2
05:54 25.0 °C 22.0 °C 1014.6 hPa Calm   4 km/h 82% 0.00 mm 0.00 W/m2
05:59 25.0 °C 22.0 °C 1014.6 hPa North 1 km/h 4 km/h 82% 0.00 mm 0.00 W/m2
06:04 25.0 °C 22.0 °C 1014.6 hPa Calm     82% 0.00 mm 0.00 W/m2
06:09 25.0 °C 22.0 °C 1014.6 hPa Calm     82% 0.00 mm 0.00 W/m2
06:14 25.0 °C 22.0 °C 1014.6 hPa Calm     81% 0.00 mm 0.00 W/m2
06:19 25.0 °C 22.0 °C 1014.9 hPa Calm     81% 0.00 mm 0.00 W/m2
06:24 25.0 °C 22.0 °C 1014.9 hPa Calm     81% 0.00 mm 1.97 W/m2
06:29 25.0 °C 22.0 °C 1014.9 hPa NW 1 km/h 4 km/h 81% 0.00 mm 5.81 W/m2
06:34 25.0 °C 22.0 °C 1014.9 hPa Calm     81% 0.00 mm 11.60 W/m2
06:39 26.0 °C 22.0 °C 1014.9 hPa Calm     81% 0.00 mm 21.16 W/m2
06:44 25.0 °C 22.0 °C 1015.2 hPa North 3 km/h 4 km/h 81% 0.00 mm 23.87 W/m2
06:49 26.0 °C 22.0 °C 1014.9 hPa NW 3 km/h 4 km/h 81% 0.00 mm 27.00 W/m2
06:54 26.0 °C 22.0 °C 1015.2 hPa NNW 3 km/h 4 km/h 81% 0.00 mm 30.01 W/m2
06:59 26.0 °C 22.0 °C 1015.2 hPa North 5 km/h 8 km/h 81% 0.00 mm 33.66 W/m2
07:04 26.0 °C 22.0 °C 1015.2 hPa NNE 4 km/h 4 km/h 81% 0.00 mm 37.45 W/m2
07:09 26.0 °C 22.0 °C 1015.6 hPa North 5 km/h 8 km/h 82% 0.00 mm 40.96 W/m2
07:14 26.0 °C 22.0 °C 1015.2 hPa North 5 km/h 8 km/h 82% 0.00 mm 44.52 W/m2
07:19 26.0 °C 22.0 °C 1015.2 hPa North 4 km/h 8 km/h 82% 0.00 mm 44.40 W/m2
07:24 26.0 °C 22.0 °C 1015.6 hPa North 6 km/h 8 km/h 82% 0.00 mm 36.52 W/m2
07:29 26.0 °C 22.0 °C 1015.6 hPa North 6 km/h 8 km/h 82% 0.00 mm 41.66 W/m2
07:34 26.0 °C 22.0 °C 1015.9 hPa NNW 7 km/h 8 km/h 82% 0.00 mm 66.07 W/m2
07:39 26.0 °C 22.0 °C 1015.9 hPa North 5 km/h 8 km/h 82% 0.00 mm 81.50 W/m2
07:44 26.0 °C 22.0 °C 1015.6 hPa North 9 km/h 12 km/h 82% 0.00 mm 74.07 W/m2
07:49 26.0 °C 23.0 °C 1015.6 hPa North 9 km/h 12 km/h 82% 0.00 mm 100.75 W/m2
07:54 26.0 °C 23.0 °C 1015.6 hPa NW 11 km/h 12 km/h 82% 0.00 mm 86.73 W/m2
07:59 26.0 °C 23.0 °C 1015.6 hPa NNW 13 km/h 16 km/h 82% 0.00 mm 85.07 W/m2
08:04 26.0 °C 22.0 °C 1015.9 hPa NNW 12 km/h 16 km/h 81% 0.00 mm 117.27 W/m2
08:09 26.0 °C 22.0 °C 1015.9 hPa North 10 km/h 12 km/h 81% 0.00 mm 151.55 W/m2
08:14 26.0 °C 23.0 °C 1015.9 hPa North 7 km/h 12 km/h 81% 0.00 mm 175.65 W/m2
08:19 27.0 °C 23.0 °C 1015.9 hPa North 10 km/h 12 km/h 80% 0.00 mm 163.28 W/m2
08:24 27.0 °C 23.0 °C 1015.9 hPa NNE 10 km/h 12 km/h 79% 0.00 mm 144.30 W/m2
08:29 27.0 °C 23.0 °C 1015.9 hPa NW 7 km/h 12 km/h 78% 0.00 mm 142.96 W/m2
08:34 27.0 °C 23.0 °C 1015.9 hPa NNE 8 km/h 12 km/h 78% 0.00 mm 129.20 W/m2
08:39 27.0 °C 23.0 °C 1015.9 hPa North 10 km/h 12 km/h 79% 0.00 mm 112.65 W/m2
08:44 27.0 °C 23.0 °C 1015.9 hPa NNW 10 km/h 12 km/h 78% 0.00 mm 113.99 W/m2
08:49 27.0 °C 23.0 °C 1016.3 hPa North 9 km/h 12 km/h 78% 0.00 mm 161.23 W/m2
08:54 27.0 °C 23.0 °C 1016.3 hPa NNW 9 km/h 16 km/h 78% 0.00 mm 194.80 W/m2
08:59 27.0 °C 23.0 °C 1015.9 hPa NNW 10 km/h 16 km/h 77% 0.00 mm 345.50 W/m2
09:04 28.0 °C 23.0 °C 1015.9 hPa North 10 km/h 12 km/h 76% 0.00 mm 345.72 W/m2
09:09 28.0 °C 23.0 °C 1016.3 hPa NNW 10 km/h 16 km/h 75% 0.00 mm 289.88 W/m2
09:14 28.0 °C 23.0 °C 1016.3 hPa NNW 12 km/h 16 km/h 74% 0.00 mm 269.38 W/m2
09:19 28.0 °C 23.0 °C 1016.3 hPa NW 13 km/h 16 km/h 75% 0.00 mm 279.04 W/m2
09:24 28.0 °C 23.0 °C 1016.3 hPa NNW 13 km/h 16 km/h 75% 0.00 mm 286.78 W/m2
09:29 28.0 °C 23.0 °C 1016.6 hPa North 15 km/h 16 km/h 73% 0.00 mm 307.55 W/m2
09:34 29.0 °C 23.0 °C 1016.6 hPa NNE 11 km/h 16 km/h 72% 0.00 mm 339.45 W/m2
09:39 29.0 °C 23.0 °C 1016.6 hPa NNW 9 km/h 12 km/h 71% 0.00 mm 427.90 W/m2
09:44 29.0 °C 23.0 °C 1016.6 hPa North 12 km/h 12 km/h 71% 0.00 mm 451.42 W/m2
09:49 29.0 °C 23.0 °C 1016.6 hPa NW 5 km/h 8 km/h 69% 0.00 mm 407.45 W/m2
09:54 30.0 °C 23.0 °C 1016.6 hPa NW 13 km/h 16 km/h 71% 0.00 mm 284.28 W/m2
09:59 29.0 °C 23.0 °C 1016.6 hPa North 9 km/h 12 km/h 71% 0.00 mm 334.32 W/m2
10:04 29.0 °C 23.0 °C 1016.6 hPa NW 10 km/h 16 km/h 71% 0.00 mm 212.14 W/m2
10:09 29.0 °C 24.0 °C 1016.6 hPa North 15 km/h 20 km/h 73% 0.00 mm 144.25 W/m2
10:14 29.0 °C 24.0 °C 1016.3 hPa NNW 16 km/h 20 km/h 73% 0.00 mm 138.75 W/m2
10:19 29.0 °C 23.0 °C 1016.6 hPa NNE 13 km/h 20 km/h 74% 0.00 mm 118.20 W/m2
10:24 29.0 °C 23.0 °C 1016.3 hPa NNW 20 km/h 24 km/h 75% 0.00 mm 107.36 W/m2
10:29 28.0 °C 24.0 °C 1016.3 hPa North 19 km/h 24 km/h 75% 0.00 mm 182.89 W/m2
10:34 28.0 °C 23.0 °C 1016.3 hPa North 19 km/h 20 km/h 75% 0.00 mm 205.84 W/m2
10:39 28.0 °C 23.0 °C 1016.3 hPa North 18 km/h 20 km/h 75% 0.00 mm 199.26 W/m2
10:44 28.0 °C 23.0 °C 1016.3 hPa North 19 km/h 20 km/h 76% 0.00 mm 272.76 W/m2
10:49 28.0 °C 23.0 °C 1016.3 hPa NNW 19 km/h 24 km/h 76% 0.00 mm 485.23 W/m2
10:54 28.0 °C 23.0 °C 1015.9 hPa NNW 19 km/h 20 km/h 76% 0.00 mm 435.54 W/m2
10:59 28.0 °C 23.0 °C 1015.9 hPa NNW 17 km/h 20 km/h 75% 0.00 mm 527.02 W/m2
11:04 29.0 °C 24.0 °C 1015.9 hPa North 15 km/h 16 km/h 75% 0.00 mm 529.74 W/m2
11:09 29.0 °C 24.0 °C 1015.9 hPa North 14 km/h 16 km/h 75% 0.00 mm 402.04 W/m2
11:14 29.0 °C 24.0 °C 1015.9 hPa North 8 km/h 8 km/h 73% 0.00 mm 365.39 W/m2
11:19 29.0 °C 24.0 °C 1015.9 hPa North 13 km/h 16 km/h 72% 0.00 mm 295.42 W/m2
11:24 29.0 °C 24.0 °C 1015.9 hPa NW 11 km/h 16 km/h 72% 0.00 mm 418.78 W/m2
11:29 29.0 °C 24.0 °C 1015.6 hPa NNW 15 km/h 16 km/h 72% 0.00 mm 346.53 W/m2
11:34 30.0 °C 24.0 °C 1015.6 hPa North 14 km/h 16 km/h 73% 0.00 mm 287.31 W/m2
11:39 30.0 °C 24.0 °C 1015.6 hPa North 21 km/h 24 km/h 71% 0.00 mm 313.20 W/m2
11:44 29.0 °C 24.0 °C 1015.6 hPa NNE 14 km/h 20 km/h 72% 0.00 mm 222.23 W/m2
11:49 29.0 °C 23.0 °C 1015.2 hPa NNE 14 km/h 16 km/h 71% 0.00 mm 187.96 W/m2
11:54 30.0 °C 24.0 °C 1015.2 hPa NE 6 km/h 8 km/h 71% 0.00 mm 157.80 W/m2
11:59 30.0 °C 24.0 °C 1015.2 hPa ESE 5 km/h 8 km/h 70% 0.00 mm 407.55 W/m2
12:04 30.0 °C 24.0 °C 1015.2 hPa NNE 10 km/h 12 km/h 69% 0.00 mm 275.59 W/m2
12:09 30.0 °C 24.0 °C 1015.2 hPa North 13 km/h 16 km/h 72% 0.00 mm 316.43 W/m2
12:14 29.0 °C 24.0 °C 1014.9 hPa North 10 km/h 16 km/h 72% 0.00 mm 221.11 W/m2
12:19 29.0 °C 24.0 °C 1014.9 hPa North 9 km/h 12 km/h 72% 0.00 mm 156.08 W/m2
12:24 29.0 °C 24.0 °C 1014.9 hPa North 12 km/h 16 km/h 72% 0.00 mm 105.89 W/m2
12:29 29.0 °C 24.0 °C 1014.6 hPa North 13 km/h 16 km/h 72% 0.00 mm 49.43 W/m2
12:34 29.0 °C 24.0 °C 1014.6 hPa North 17 km/h 20 km/h 76% 0.00 mm 35.26 W/m2
12:39 29.0 °C 24.0 °C 1014.6 hPa NNE 19 km/h 24 km/h 78% 0.00 mm 45.69 W/m2
12:44 29.0 °C 25.0 °C 1014.9 hPa NNE 19 km/h 24 km/h 81% 0.00 mm 53.90 W/m2
12:49 29.0 °C 25.0 °C 1014.9 hPa NNE 20 km/h 24 km/h 84% 0.00 mm 79.64 W/m2
12:54 28.0 °C 25.0 °C 1014.6 hPa North 19 km/h 20 km/h 84% 0.00 mm 120.94 W/m2
12:59 28.0 °C 24.0 °C 1014.6 hPa North 14 km/h 16 km/h 82% 0.00 mm 153.36 W/m2
13:04 28.0 °C 24.0 °C 1014.2 hPa NNE 8 km/h 12 km/h 80% 0.00 mm 523.81 W/m2
13:09 29.0 °C 24.0 °C 1014.2 hPa NNE 12 km/h 16 km/h 78% 0.00 mm 550.53 W/m2
13:14 30.0 °C 24.0 °C 1014.2 hPa NNE 10 km/h 12 km/h 75% 0.00 mm 623.35 W/m2
13:19 30.0 °C 24.0 °C 1014.2 hPa NNE 19 km/h 24 km/h 72% 0.00 mm 513.05 W/m2
13:24 30.0 °C 24.0 °C 1014.2 hPa North 17 km/h 20 km/h 72% 0.00 mm 241.49 W/m2
13:29 30.0 °C 24.0 °C 1014.2 hPa North 23 km/h 24 km/h 72% 0.00 mm 207.89 W/m2
13:34 30.0 °C 24.0 °C 1013.9 hPa North 26 km/h 32 km/h 75% 0.00 mm 189.05 W/m2
13:39 29.0 °C 25.0 °C 1013.9 hPa North 21 km/h 32 km/h 76% 0.00 mm 183.16 W/m2
13:44 29.0 °C 25.0 °C 1013.9 hPa North 19 km/h 24 km/h 76% 0.00 mm 145.40 W/m2
13:49 29.0 °C 24.0 °C 1013.9 hPa North 20 km/h 24 km/h 75% 0.00 mm 145.84 W/m2
13:54 29.0 °C 24.0 °C 1013.6 hPa North 15 km/h 20 km/h 75% 0.00 mm 150.22 W/m2
13:59 29.0 °C 24.0 °C 1013.6 hPa North 18 km/h 20 km/h 73% 0.00 mm 224.19 W/m2
14:04 30.0 °C 24.0 °C 1013.6 hPa NNE 18 km/h 20 km/h 72% 0.00 mm 610.13 W/m2
14:09 31.0 °C 24.0 °C 1013.6 hPa NNE 17 km/h 20 km/h 69% 0.00 mm 615.59 W/m2
14:14 31.0 °C 24.0 °C 1013.6 hPa NNE 15 km/h 16 km/h 67% 0.00 mm 609.74 W/m2
14:19 31.0 °C 24.0 °C 1013.6 hPa NNE 17 km/h 20 km/h 66% 0.00 mm 603.02 W/m2
14:24 31.0 °C 23.0 °C 1013.2 hPa NNE 17 km/h 20 km/h 67% 0.00 mm 579.92 W/m2
14:29 31.0 °C 24.0 °C 1013.2 hPa North 20 km/h 24 km/h 65% 0.00 mm 595.67 W/m2
14:34 31.0 °C 24.0 °C 1013.2 hPa NNE 17 km/h 20 km/h 66% 0.00 mm 300.14 W/m2
14:39 31.0 °C 24.0 °C 1013.2 hPa NNE 15 km/h 20 km/h 66% 0.00 mm 207.48 W/m2
14:44 31.0 °C 24.0 °C 1013.2 hPa NNE 17 km/h 20 km/h 67% 0.00 mm 171.00 W/m2
14:49 31.0 °C 24.0 °C 1013.2 hPa NNE 19 km/h 24 km/h 68% 0.00 mm 172.07 W/m2
14:54 30.0 °C 24.0 °C 1013.2 hPa NNE 13 km/h 16 km/h 68% 0.00 mm 200.26 W/m2
14:59 31.0 °C 24.0 °C 1013.2 hPa East 10 km/h 12 km/h 66% 0.00 mm 243.30 W/m2
15:04 31.0 °C 23.0 °C 1013.2 hPa NNE 17 km/h 20 km/h 66% 0.00 mm 339.94 W/m2
15:09 30.0 °C 23.0 °C 1013.2 hPa NNE 15 km/h 24 km/h 66% 0.00 mm 468.45 W/m2
15:14 31.0 °C 24.0 °C 1013.2 hPa NE 13 km/h 20 km/h 66% 0.00 mm 447.79 W/m2
15:19 32.0 °C 24.0 °C 1012.9 hPa ENE 20 km/h 28 km/h 65% 0.00 mm 429.37 W/m2
15:24 31.0 °C 23.0 °C 1013.2 hPa NNE 20 km/h 28 km/h 63% 0.00 mm 405.72 W/m2
15:29 32.0 °C 23.0 °C 1012.9 hPa NNE 18 km/h 24 km/h 63% 0.00 mm 390.05 W/m2
15:34 32.0 °C 23.0 °C 1012.9 hPa ENE 15 km/h 20 km/h 62% 0.00 mm 385.21 W/m2
15:39 32.0 °C 23.0 °C 1012.9 hPa North 20 km/h 24 km/h 61% 0.00 mm 398.20 W/m2
15:44 32.0 °C 23.0 °C 1012.9 hPa North 19 km/h 24 km/h 62% 0.00 mm 407.94 W/m2
15:49 31.0 °C 23.0 °C 1012.9 hPa North 20 km/h 24 km/h 62% 0.00 mm 384.77 W/m2
15:54 31.0 °C 23.0 °C 1012.9 hPa NNE 18 km/h 24 km/h 61% 0.00 mm 376.06 W/m2
15:59 32.0 °C 23.0 °C 1012.9 hPa NNE 22 km/h 28 km/h 62% 0.00 mm 369.43 W/m2
16:04 32.0 °C 23.0 °C 1012.9 hPa NNE 26 km/h 28 km/h 61% 0.00 mm 354.25 W/m2
16:09 32.0 °C 23.0 °C 1012.9 hPa NE 23 km/h 28 km/h 62% 0.00 mm 342.73 W/m2
16:14 32.0 °C 23.0 °C 1012.9 hPa NNE 18 km/h 20 km/h 62% 0.00 mm 332.38 W/m2
16:19 32.0 °C 24.0 °C 1012.9 hPa NE 12 km/h 16 km/h 62% 0.00 mm 331.30 W/m2
16:24 32.0 °C 23.0 °C 1012.5 hPa NNE 19 km/h 24 km/h 62% 0.00 mm 317.21 W/m2
16:29 31.0 °C 23.0 °C 1012.9 hPa NNE 20 km/h 28 km/h 63% 0.00 mm 294.78 W/m2
16:34 31.0 °C 23.0 °C 1012.9 hPa NE 17 km/h 20 km/h 63% 0.00 mm 287.52 W/m2
16:39 31.0 °C 23.0 °C 1012.9 hPa NNE 23 km/h 32 km/h 63% 0.00 mm 283.09 W/m2
16:44 31.0 °C 23.0 °C 1012.9 hPa NNE 15 km/h 28 km/h 63% 0.00 mm 270.51 W/m2
16:49 31.0 °C 23.0 °C 1012.9 hPa NNE 22 km/h 28 km/h 63% 0.00 mm 262.16 W/m2
23:18 27.0 °C 22.0 °C 1014.2 hPa Calm     75% 0.00 mm 0.00 W/m2
PIMOHWEATHER Philippines
Compliments of Weather Underground - 2 mb